W0KHZ Weather Reports


time (UTC)temp
F
wind
direction
speed
knots
gust
knots
rain 1hr
in
rain 24hr
in
rain mn
in
humidity
%
barometer
mb
20260502160530 58 210 2.6 7.0 0.00 0.00 0.00 43 1016.3
20260502152114 54 177 2.6 7.0 0.00 0.00 0.00 53 1016.8
20260502151552 54 178 1.7 5.2 0.00 0.00 0.00 55 1016.8
20260502151029 53 185 1.7 5.2 0.00 0.00 0.00 58 1016.9
20260502150528 53 153 2.6 5.2 0.00 0.00 0.00 57 1017.0
20260502130522 32 0.0 0.0 0.00 0.00 0.00 86 1017.9
20260502123532 29 0.0 0.0 0.00 0.00 0.00 85 1017.9
20260502123029 29 0.0 0.0 0.00 0.00 0.00 85 1017.9
20260502122528 29 0.0 0.0 0.00 0.00 0.00 85 1017.9
20260502122026 29 0.0 0.0 0.00 0.00 0.00 85 1017.9
20260502121524 29 0.0 0.0 0.00 0.00 0.00 85 1017.9
20260502121022 29 0.0 0.0 0.00 0.00 0.00 85 1017.7
20260502120521 29 0.0 0.0 0.00 0.00 0.00 86 1017.8
20260502115517 29 0.0 0.0 0.00 0.00 0.00 86 1017.7
20260502115035 29 0.0 0.0 0.00 0.00 0.00 86 1017.7
20260502114534 28 0.0 0.0 0.00 0.00 0.00 86 1017.7
20260502114032 28 0.0 0.0 0.00 0.00 0.00 86 1017.6
20260502113529 28 0.0 0.0 0.00 0.00 0.00 86 1017.5
20260502113047 28 0.0 0.0 0.00 0.00 0.00 85 1017.6
20260502112526 28 0.0 0.0 0.00 0.00 0.00 85 1017.6
20260502112024 29 0.0 0.0 0.00 0.00 0.00 85 1017.5
20260502111522 29 0.0 0.0 0.00 0.00 0.00 84 1017.4
20260502111020 29 0.0 0.0 0.00 0.00 0.00 84 1017.4
20260502110519 29 0.0 0.0 0.00 0.00 0.00 84 1017.4
20260502110037 29 0.0 0.0 0.00 0.00 0.00 85 1017.5
20260502105515 29 0.0 0.0 0.00 0.00 0.00 85 1017.5
20260502105034 29 0.0 0.0 0.00 0.00 0.00 84 1017.5
20260502104532 29 0.0 0.0 0.00 0.00 0.00 84 1017.5
20260502104029 29 0.0 0.0 0.00 0.00 0.00 84 1017.5
20260502103527 29 0.0 0.0 0.00 0.00 0.00 84 1017.6
20260502103025 29 0.0 0.0 0.00 0.00 0.00 84 1017.6
20260502102524 29 0.0 0.0 0.00 0.00 0.00 84 1017.6
20260502102022 29 0.0 0.0 0.00 0.00 0.00 83 1017.6
20260502101520 29 0.0 0.0 0.00 0.00 0.00 83 1017.5
20260502101018 29 0.0 0.0 0.00 0.00 0.00 83 1017.6
20260502100517 30 0.0 0.0 0.00 0.00 0.00 83 1017.6
20260502091518 30 0.0 0.0 0.00 0.00 0.00 82 1017.4
20260502091016 30 0.0 0.0 0.00 0.00 0.00 82 1017.4
20260502090535 30 0.0 0.0 0.00 0.00 0.00 82 1017.4
20260502071032 32 0.0 0.0 0.00 0.00 0.00 76 1017.6
20260502070530 32 0.0 0.0 0.00 0.00 0.00 75 1017.5
20260502070028 33 0.0 0.0 0.00 0.00 0.00 74 1017.4
20260502065526 33 0.0 0.0 0.00 0.00 0.00 74 1017.5
20260502065024 33 0.0 0.0 0.00 0.00 0.00 74 1017.6
20260502064522 33 0.0 0.0 0.00 0.00 0.00 74 1017.5
20260502064021 33 0.0 0.0 0.00 0.00 0.00 75 1017.6
20260502063519 33 0.0 0.0 0.00 0.00 0.00 74 1017.6
20260502063018 33 0.0 0.0 0.00 0.00 0.00 73 1017.7
20260502062516 33 0.0 0.0 0.00 0.00 0.00 73 1017.6
20260502062034 33 0.0 0.0 0.00 0.00 0.00 74 1017.6
20260502061532 33 0.0 0.0 0.00 0.00 0.00 75 1017.6
20260502061029 33 0.0 0.0 0.00 0.00 0.00 74 1017.5
20260502060527 33 0.0 0.0 0.00 0.00 0.00 73 1017.6
20260502060026 34 0.0 0.0 0.00 0.00 0.00 74 1017.5
20260502055524 34 0.0 0.0 0.00 0.00 0.00 74 1017.5
20260502055022 34 0.0 0.0 0.00 0.00 0.00 73 1017.5
20260502054521 34 0.0 0.0 0.00 0.00 0.00 71 1017.5
20260502054019 34 0.0 0.0 0.00 0.00 0.00 70 1017.4
20260502053517 35 0.0 0.0 0.00 0.00 0.00 71 1017.5
20260502053015 34 0.0 0.0 0.00 0.00 0.00 72 1017.4
20260502052534 35 0.0 0.0 0.00 0.00 0.00 72 1017.5
20260502052031 35 0.0 0.0 0.00 0.00 0.00 71 1017.4
20260502051529 35 0.0 0.0 0.00 0.00 0.00 70 1017.5
20260502051027 35 0.0 0.0 0.00 0.00 0.00 69 1017.5
20260502050525 35 0.0 0.0 0.00 0.00 0.00 69 1017.3
20260502050023 35 0.0 0.0 0.00 0.00 0.00 70 1017.3
20260502045522 35 0.0 0.0 0.00 0.00 0.00 70 1017.4
20260502045020 35 0.0 0.0 0.00 0.00 0.00 70 1017.3
20260502044519 36 0.0 0.0 0.00 0.00 0.00 70 1017.3
20260502044017 36 0.0 0.0 0.00 0.00 0.00 69 1017.3
20260502043535 36 0.0 0.0 0.00 0.00 0.00 69 1017.1
20260502043033 36 0.0 0.0 0.00 0.00 0.00 68 1017.2
20260502042551 36 0.0 0.0 0.00 0.00 0.00 68 1017.2
20260502042029 37 0.0 0.0 0.00 0.00 0.00 68 1017.1
20260502041527 37 0.0 0.0 0.00 0.00 0.00 66 1017.2
20260502041025 37 0.0 0.0 0.00 0.00 0.00 66 1017.2
20260502040523 37 0.0 0.0 0.00 0.00 0.00 66 1017.2
20260502040021 37 0.0 0.0 0.00 0.00 0.00 65 1017.1
20260502035600 37 0.0 0.0 0.00 0.00 0.00 65 1017.1
20260502035018 37 0.0 0.0 0.00 0.00 0.00 67 1017.1
20260502034516 37 0.0 0.0 0.00 0.00 0.00 70 1017.1
20260502034035 37 0.0 0.0 0.00 0.00 0.00 70 1017.1
20260502033533 37 0.0 0.0 0.00 0.00 0.00 70 1017.1
20260502033030 38 0.0 0.0 0.00 0.00 0.00 69 1017.1
20260502032528 38 0.0 0.0 0.00 0.00 0.00 67 1017.1
20260502032026 38 0.0 0.0 0.00 0.00 0.00 67 1017.1
20260502031525 39 0.0 0.0 0.00 0.00 0.00 65 1017.0
20260502031023 39 0.0 0.0 0.00 0.00 0.00 63 1017.1
20260502030521 40 0.0 0.0 0.00 0.00 0.00 61 1017.0
20260502030020 40 0.0 0.0 0.00 0.00 0.00 62 1017.1
20260502025538 40 0.0 0.0 0.00 0.00 0.00 60 1017.1
20260502025016 40 0.0 0.0 0.00 0.00 0.00 58 1017.0
20260502024535 41 0.0 0.0 0.00 0.00 0.00 58 1017.0
20260502024053 41 0.0 0.0 0.00 0.00 0.00 60 1017.0
20260502023530 41 0.0 0.0 0.00 0.00 0.00 61 1017.0
20260502023028 42 0.0 0.0 0.00 0.00 0.00 60 1017.0
20260502022526 42 0.0 0.0 0.00 0.00 0.00 56 1016.9
20260502022025 43 0.0 0.0 0.00 0.00 0.00 54 1016.8
20260502021543 43 0.0 0.0 0.00 0.00 0.00 54 1016.8
20260502021021 43 0.0 0.0 0.00 0.00 0.00 55 1016.9
20260502020520 44 0.0 0.0 0.00 0.00 0.00 53 1016.7
20260502020018 44 0.0 0.0 0.00 0.00 0.00 54 1016.7
20260502015536 45 0.0 0.0 0.00 0.00 0.00 52 1016.7
20260502015034 45 0.0 0.0 0.00 0.00 0.00 49 1016.6
20260502014532 45 0.0 0.0 0.00 0.00 0.00 47 1016.6
20260502014030 45 0.0 0.0 0.00 0.00 0.00 47 1016.5
20260502013528 46 0.0 0.0 0.00 0.00 0.00 45 1016.5
20260502013026 46 0.0 0.0 0.00 0.00 0.00 45 1016.4
20260502012524 47 0.0 0.0 0.00 0.00 0.00 44 1016.3
20260502012022 47 0.0 0.0 0.00 0.00 0.00 41 1016.3
20260502011601 47 0.0 0.0 0.00 0.00 0.00 41 1016.4
20260502011019 48 0.0 0.0 0.00 0.00 0.00 41 1016.2
20260502010537 48 0.0 0.0 0.00 0.00 0.00 40 1016.2
20260502010015 48 0.0 0.0 0.00 0.00 0.00 40 1016.1
20260502005554 48 0.0 0.0 0.00 0.00 0.00 39 1016.1
20260502005031 49 0.0 0.0 0.00 0.00 0.00 39 1016.0
20260502004529 49 0.0 0.0 0.00 0.00 0.00 38 1015.9
20260502004027 50 303 0.0 1.7 0.00 0.00 0.00 38 1016.0
20260502003525 50 283 0.0 0.9 0.00 0.00 0.00 38 1015.9
20260502003024 50 303 0.0 2.6 0.00 0.00 0.00 37 1015.8
20260502002542 51 301 1.7 5.2 0.00 0.00 0.00 37 1015.8
20260502002040 51 299 1.7 5.2 0.00 0.00 0.00 37 1015.9
20260502001518 51 299 1.7 6.1 0.00 0.00 0.00 37 1015.8
20260502001016 52 329 0.9 6.1 0.00 0.00 0.00 37 1015.7
20260502000535 52 302 1.7 5.2 0.00 0.00 0.00 36 1015.6
20260502000033 52 299 2.6 6.1 0.00 0.00 0.00 36 1015.6
20260501235551 53 293 1.7 6.1 0.00 0.00 0.00 35 1015.5
20260501235049 53 312 1.7 3.5 0.00 0.00 0.00 35 1015.4
20260501234547 53 304 2.6 7.0 0.00 0.00 0.00 35 1015.5
20260501234025 53 302 3.5 9.6 0.00 0.00 0.00 34 1015.5
20260501233523 54 288 4.3 13.0 0.00 0.00 0.00 35 1015.5
20260501233021 54 278 3.5 7.0 0.00 0.00 0.00 34 1015.5
20260501232520 54 296 3.5 9.6 0.00 0.00 0.00 35 1015.4
20260501232018 54 347 1.7 2.6 0.00 0.00 0.00 35 1015.5
20260501231516 54 330 2.6 6.1 0.00 0.00 0.00 34 1015.6
20260501231034 54 308 3.5 9.6 0.00 0.00 0.00 34 1015.6
20260501230533 54 305 1.7 8.7 0.00 0.00 0.00 35 1015.5
20260501230030 54 302 2.6 7.8 0.00 0.00 0.00 35 1015.6
20260501225528 54 227 1.7 5.2 0.00 0.00 0.00 34 1015.4
20260501225026 54 305 3.5 8.7 0.00 0.00 0.00 34 1015.4
20260501224525 53 231 1.7 5.2 0.00 0.00 0.00 36 1015.4
20260501224023 53 274 2.6 6.1 0.00 0.00 0.00 35 1015.5
20260501223521 53 286 2.6 7.0 0.00 0.00 0.00 35 1015.5
20260501223019 53 306 2.6 6.1 0.00 0.00 0.00 35 1015.5
20260501222518 54 297 2.6 7.8 0.00 0.00 0.00 35 1015.5
20260501222016 54 302 2.6 6.1 0.00 0.00 0.00 34 1015.5
20260501221554 54 305 2.6 8.7 0.00 0.00 0.00 35 1015.5
20260501221052 54 309 2.6 9.6 0.00 0.00 0.00 36 1015.4
20260501220529 53 292 2.6 6.1 0.00 0.00 0.00 35 1015.3
20260501220047 53 281 2.6 6.1 0.00 0.00 0.00 36 1015.4
20260501215705 54 317 1.7 5.2 0.00 0.00 0.00 35 1015.4
20260501215043 54 307 3.5 7.8 0.00 0.00 0.00 35 1015.3
20260501214521 54 308 2.6 7.8 0.00 0.00 0.00 35 1015.4
20260501214019 54 328 2.6 7.0 0.00 0.00 0.00 34 1015.3
20260501213537 55 316 1.7 6.1 0.00 0.00 0.00 35 1015.3
20260501213015 55 300 2.6 6.1 0.00 0.00 0.00 34 1015.3
20260501212534 55 304 4.3 9.6 0.00 0.00 0.00 34 1015.3
20260501212031 55 314 3.5 12.2 0.00 0.00 0.00 37 1015.3
20260501211528 54 303 2.6 8.7 0.00 0.00 0.00 37 1015.2
20260501211027 54 285 2.6 7.0 0.00 0.00 0.00 38 1015.2
20260501210525 53 296 2.6 6.1 0.00 0.00 0.00 37 1015.3
20260501210023 53 295 1.7 6.1 0.00 0.00 0.00 36 1015.3
20260501205541 53 303 3.5 8.7 0.00 0.00 0.00 35 1015.3
20260501205019 53 317 3.5 7.8 0.00 0.00 0.00 36 1015.4
20260501204518 53 302 3.5 12.2 0.00 0.00 0.00 36 1015.4
20260501204036 53 309 3.5 7.0 0.00 0.00 0.00 36 1015.4
20260501203534 53 309 2.6 8.7 0.00 0.00 0.00 36 1015.5
20260501203032 53 305 2.6 5.2 0.00 0.00 0.00 36 1015.5
20260501202530 54 310 3.5 8.7 0.00 0.00 0.00 36 1015.5
20260501202028 54 292 3.5 9.6 0.00 0.00 0.00 38 1015.4
20260501201526 53 290 3.5 7.0 0.00 0.00 0.00 37 1015.5
20260501201104 53 329 2.6 7.0 0.00 0.00 0.00 36 1015.6
20260501200522 53 306 2.6 7.0 0.00 0.00 0.00 36 1015.6
20260501200021 53 303 2.6 9.6 0.00 0.00 0.00 39 1015.5
20260501195619 52 275 2.6 8.7 0.00 0.00 0.00 38 1015.6
20260501195017 53 323 2.6 11.3 0.00 0.00 0.00 35 1015.6
20260501194515 53 268 2.6 6.1 0.00 0.00 0.00 36 1015.4
20260501194053 54 290 2.6 8.7 0.00 0.00 0.00 38 1015.5
20260501193531 53 297 3.5 9.6 0.00 0.00 0.00 37 1015.5
20260501193028 53 298 3.5 9.6 0.00 0.00 0.00 36 1015.4
20260501192527 53 280 2.6 7.0 0.00 0.00 0.00 37 1015.5
20260501192025 54 304 2.6 7.8 0.00 0.00 0.00 37 1015.6
20260501191524 54 311 3.5 7.8 0.00 0.00 0.00 37 1015.4
20260501191021 54 304 4.3 13.9 0.00 0.00 0.00 36 1015.4
20260501190520 54 297 1.7 5.2 0.00 0.00 0.00 36 1015.5
20260501190018 54 318 3.5 12.2 0.00 0.00 0.00 38 1015.5
20260501185516 54 301 5.2 15.6 0.00 0.00 0.00 37 1015.5
20260501185035 54 303 5.2 12.2 0.00 0.00 0.00 36 1015.4
20260501184553 54 317 5.2 13.9 0.00 0.00 0.00 36 1015.4
20260501184031 53 310 5.2 13.9 0.00 0.00 0.00 38 1015.3
20260501183528 53 321 2.6 7.8 0.00 0.00 0.00 37 1015.5
20260501183027 53 320 3.5 7.0 0.00 0.00 0.00 36 1015.4
20260501182525 53 317 3.5 11.3 0.00 0.00 0.00 40 1015.3
20260501182023 52 298 3.5 11.3 0.00 0.00 0.00 42 1015.4
20260501181521 51 313 2.6 7.0 0.00 0.00 0.00 41 1015.5
20260501181020 52 310 2.6 7.0 0.00 0.00 0.00 40 1015.6
20260501180518 52 273 2.6 7.0 0.00 0.00 0.00 41 1015.5
20260501180016 52 308 2.6 8.7 0.00 0.00 0.00 43 1015.5
20260501175534 51 320 3.5 7.0 0.00 0.00 0.00 42 1015.6
20260501175033 51 309 2.6 8.7 0.00 0.00 0.00 41 1015.6
20260501174530 51 308 2.6 5.2 0.00 0.00 0.00 44 1015.6
20260501174028 51 305 1.7 3.5 0.00 0.00 0.00 45 1015.6
20260501173526 51 303 3.5 11.3 0.00 0.00 0.00 42 1015.5
20260501173024 51 314 2.6 7.0 0.00 0.00 0.00 46 1015.6
20260501172021 51 334 3.5 7.0 0.00 0.00 0.00 43 1015.6
20260501171600 52 315 3.5 9.6 0.00 0.00 0.00 45 1015.6
20260501171018 52 331 2.6 12.2 0.00 0.00 0.00 48 1015.7
20260501170516 51 323 2.6 7.0 0.00 0.00 0.00 46 1015.7
20260501170034 51 331 3.5 7.8 0.00 0.00 0.00 46 1015.7
20260501165532 51 312 4.3 13.0 0.00 0.00 0.00 46 1015.7
20260501165029 50 304 3.5 16.5 0.00 0.00 0.00 47 1015.7
20260501164527 51 306 1.7 7.8 0.00 0.00 0.00 46 1015.8
20260501164026 51 308 3.5 11.3 0.00 0.00 0.00 47 1015.9
20260501163524 51 309 4.3 11.3 0.00 0.00 0.00 47 1015.8
20260501163022 51 298 2.6 6.1 0.00 0.00 0.00 46 1015.8
20260501162520 51 309 3.5 12.2 0.00 0.00 0.00 49 1015.7
20260501162019 50 319 2.6 6.1 0.00 0.00 0.00 48 1015.7
20260501161517 50 296 2.6 7.8 0.00 0.00 0.00 49 1015.7
20260501161015 49 287 3.5 11.3 0.00 0.00 0.00 48 1015.8